Time,TemperatureF,DewpointF,PressureIn,WindDirection,WindDirectionDegrees,WindSpeedMPH,WindSpeedGustMPH,Humidity,HourlyPrecipIn,Conditions,Clouds,dailyrainin,SoftwareType,DateUTC
2013-01-07 00:07:00,69.4,69.1,29.96,WNW,292,3.2,-999.0,99,-99.99,,,0.00,Acu-Link.com,2013-01-07 05:07:00,
2013-01-07 00:22:00,69.4,69.1,29.95,NW,315,1.7,-999.0,99,-99.99,,,0.00,Acu-Link.com,2013-01-07 05:22:00,
2013-01-07 00:37:00,69.3,69.0,29.95,NW,315,2.7,-999.0,99,-99.99,,,0.00,Acu-Link.com,2013-01-07 05:37:00,
2013-01-07 00:53:00,69.3,69.0,29.95,WNW,292,2.7,-999.0,99,-99.99,,,0.00,Acu-Link.com,2013-01-07 05:53:00,
2013-01-07 01:08:00,68.9,68.6,29.94,NW,315,2.7,-999.0,99,-99.99,,,0.00,Acu-Link.com,2013-01-07 06:08:00,
2013-01-07 01:23:00,68.7,68.4,29.94,WNW,292,2.2,-999.0,99,-99.99,,,0.00,Acu-Link.com,2013-01-07 06:23:00,
2013-01-07 01:38:00,68.7,68.4,29.94,NNW,337,2.7,-999.0,99,-99.99,,,0.00,Acu-Link.com,2013-01-07 06:38:00,
2013-01-07 01:53:00,68.5,68.2,29.94,NW,315,2.7,-999.0,99,-99.99,,,0.00,Acu-Link.com,2013-01-07 06:53:00,
2013-01-07 02:08:00,68.4,68.1,29.94,North,0,2.7,-999.0,99,-99.99,,,0.00,Acu-Link.com,2013-01-07 07:08:00,
2013-01-07 02:24:00,68.2,67.9,29.93,NNW,337,3.7,-999.0,99,-99.99,,,0.00,Acu-Link.com,2013-01-07 07:24:00,
2013-01-07 02:39:00,67.8,67.5,29.93,NNW,337,1.7,-999.0,99,-99.99,,,0.00,Acu-Link.com,2013-01-07 07:39:00,
2013-01-07 02:54:00,67.8,67.5,29.93,NE,45,2.2,-999.0,99,-99.99,,,0.00,Acu-Link.com,2013-01-07 07:54:00,
2013-01-07 03:09:00,67.6,67.3,29.93,North,0,2.7,-999.0,99,-99.99,,,0.00,Acu-Link.com,2013-01-07 08:09:00,
2013-01-07 03:24:00,67.5,67.2,29.93,NNE,22,1.7,-999.0,99,-99.99,,,0.00,Acu-Link.com,2013-01-07 08:24:00,
2013-01-07 03:39:00,67.5,67.2,29.93,North,0,2.2,-999.0,99,-99.99,,,0.00,Acu-Link.com,2013-01-07 08:39:00,
2013-01-07 03:54:00,67.3,67.0,29.92,NNE,22,2.7,-999.0,99,-99.99,,,0.00,Acu-Link.com,2013-01-07 08:54:00,
2013-01-07 04:09:00,67.3,67.0,29.92,NNE,22,1.1,-999.0,99,-99.99,,,0.00,Acu-Link.com,2013-01-07 09:09:00,
2013-01-07 04:24:00,67.3,67.0,29.91,NNE,22,2.7,-999.0,99,-99.99,,,0.00,Acu-Link.com,2013-01-07 09:24:00,
2013-01-07 04:40:00,67.3,67.0,29.92,NNW,337,0.0,-999.0,99,-99.99,,,0.00,Acu-Link.com,2013-01-07 09:40:00,
2013-01-07 04:55:00,67.3,67.0,29.91,NE,45,3.2,-999.0,99,-99.99,,,0.00,Acu-Link.com,2013-01-07 09:55:00,
2013-01-07 05:10:00,67.3,67.0,29.92,NNE,22,2.7,-999.0,99,-99.99,,,0.00,Acu-Link.com,2013-01-07 10:10:00,
2013-01-07 05:25:00,67.5,67.2,29.93,NNE,22,2.7,-999.0,99,-99.99,,,0.00,Acu-Link.com,2013-01-07 10:25:00,
2013-01-07 05:40:00,67.6,67.3,29.93,NNE,22,2.7,-999.0,99,-99.99,,,0.00,Acu-Link.com,2013-01-07 10:40:00,
2013-01-07 05:55:00,67.6,67.3,29.93,NNE,22,2.2,-999.0,99,-99.99,,,0.00,Acu-Link.com,2013-01-07 10:55:00,
2013-01-07 06:10:00,67.6,67.3,29.94,NNE,22,0.0,-999.0,99,-99.99,,,0.00,Acu-Link.com,2013-01-07 11:10:00,
2013-01-07 06:25:00,67.1,66.8,29.94,West,270,2.7,-999.0,99,-99.99,,,0.00,Acu-Link.com,2013-01-07 11:25:00,
2013-01-07 06:41:00,66.9,66.6,29.94,NW,315,2.2,-999.0,99,-99.99,,,0.00,Acu-Link.com,2013-01-07 11:41:00,
2013-01-07 06:57:00,66.7,66.4,29.96,North,0,1.7,-999.0,99,-99.99,,,0.00,Acu-Link.com,2013-01-07 11:57:00,
2013-01-07 07:15:00,66.7,66.4,29.97,NNW,337,2.7,-999.0,99,-99.99,,,0.00,Acu-Link.com,2013-01-07 12:15:00,
2013-01-07 07:33:00,67.1,66.8,29.97,NE,45,3.7,-999.0,99,-99.99,,,0.00,Acu-Link.com,2013-01-07 12:33:00,
2013-01-07 07:49:00,67.5,67.2,29.97,North,0,6.8,-999.0,99,-99.99,,,0.00,Acu-Link.com,2013-01-07 12:49:00,
2013-01-07 08:04:00,69.6,68.4,29.99,NE,45,5.3,-999.0,96,-99.99,,,0.00,Acu-Link.com,2013-01-07 13:04:00,
2013-01-07 08:19:00,70.3,68.5,29.99,NE,45,5.3,-999.0,94,-99.99,,,0.00,Acu-Link.com,2013-01-07 13:19:00,
2013-01-07 08:35:00,70.0,68.5,29.99,ENE,67,5.8,-999.0,95,-99.99,,,0.00,Acu-Link.com,2013-01-07 13:35:00,
2013-01-07 08:51:00,70.0,68.8,30.00,NNE,22,3.7,-999.0,96,-99.99,,,0.00,Acu-Link.com,2013-01-07 13:51:00,
2013-01-07 09:06:00,71.1,69.6,29.99,NNE,22,3.7,-999.0,95,-99.99,,,0.00,Acu-Link.com,2013-01-07 14:06:00,
2013-01-07 09:23:00,72.1,70.3,30.00,NNW,337,6.3,-999.0,94,-99.99,,,0.00,Acu-Link.com,2013-01-07 14:23:00,
2013-01-07 09:38:00,73.2,70.4,30.01,NE,45,2.7,-999.0,91,-99.99,,,0.00,Acu-Link.com,2013-01-07 14:38:00,
2013-01-07 09:53:00,73.6,70.5,30.01,NNE,22,6.8,-999.0,90,-99.99,,,0.00,Acu-Link.com,2013-01-07 14:53:00,
2013-01-07 10:08:00,73.8,70.3,30.01,NE,45,5.8,-999.0,89,-99.99,,,0.00,Acu-Link.com,2013-01-07 15:08:00,
2013-01-07 10:23:00,74.5,70.4,30.01,NNE,22,5.3,-999.0,87,-99.99,,,0.00,Acu-Link.com,2013-01-07 15:23:00,
2013-01-07 10:39:00,75.4,70.2,30.01,NE,45,4.7,-999.0,84,-99.99,,,0.00,Acu-Link.com,2013-01-07 15:39:00,
2013-01-07 10:54:00,75.4,70.6,30.01,NE,45,5.3,-999.0,85,-99.99,,,0.00,Acu-Link.com,2013-01-07 15:54:00,
2013-01-07 11:09:00,75.7,70.2,30.01,East,90,4.7,-999.0,83,-99.99,,,0.00,Acu-Link.com,2013-01-07 16:09:00,
2013-01-07 11:24:00,72.0,69.5,30.00,South,180,5.8,-999.0,92,-99.99,,,0.00,Acu-Link.com,2013-01-07 16:24:00,
2013-01-07 11:39:00,71.8,69.7,30.00,ESE,112,7.8,-999.0,93,-99.99,,,0.00,Acu-Link.com,2013-01-07 16:39:00,
2013-01-07 11:54:00,71.4,69.9,29.99,SW,225,3.7,-999.0,95,-99.99,,,0.00,Acu-Link.com,2013-01-07 16:54:00,
2013-01-07 12:09:00,71.4,69.3,29.97,SSE,157,4.7,-999.0,93,-99.99,,,0.00,Acu-Link.com,2013-01-07 17:09:00,
2013-01-07 12:25:00,70.7,69.2,29.97,SSE,157,4.7,-999.0,95,-99.99,,,0.00,Acu-Link.com,2013-01-07 17:25:00,
2013-01-07 12:40:00,70.3,68.8,29.97,SSE,157,3.2,-999.0,95,-99.99,,,0.00,Acu-Link.com,2013-01-07 17:40:00,
2013-01-07 12:55:00,70.2,68.1,29.96,South,180,2.7,-999.0,93,-99.99,,,0.00,Acu-Link.com,2013-01-07 17:55:00,
2013-01-07 13:10:00,69.8,68.3,29.95,SSW,202,2.2,-999.0,95,-99.99,,,0.00,Acu-Link.com,2013-01-07 18:10:00,
2013-01-07 13:25:00,69.6,68.4,29.95,SSE,157,4.2,-999.0,96,-99.99,,,0.02,Acu-Link.com,2013-01-07 18:25:00,
2013-01-07 13:40:00,69.6,69.3,29.95,SSW,202,2.7,-999.0,99,-99.99,,,0.05,Acu-Link.com,2013-01-07 18:40:00,
2013-01-07 13:55:00,69.6,69.3,29.96,SW,225,1.7,-999.0,99,-99.99,,,0.10,Acu-Link.com,2013-01-07 18:55:00,
2013-01-07 14:10:00,70.0,69.7,29.95,SSE,157,2.2,-999.0,99,-99.99,,,0.14,Acu-Link.com,2013-01-07 19:10:00,
2013-01-07 14:25:00,71.1,70.8,29.93,South,180,3.2,-999.0,99,-99.99,,,0.18,Acu-Link.com,2013-01-07 19:25:00,
2013-01-07 14:41:00,70.9,70.3,29.94,South,180,2.2,-999.0,98,-99.99,,,0.18,Acu-Link.com,2013-01-07 19:41:00,
2013-01-07 14:56:00,71.8,71.2,29.93,SW,225,2.2,-999.0,98,-99.99,,,0.18,Acu-Link.com,2013-01-07 19:56:00,
2013-01-07 15:11:00,72.3,70.5,29.92,WSW,247,2.7,-999.0,94,-99.99,,,0.18,Acu-Link.com,2013-01-07 20:11:00,
2013-01-07 15:26:00,72.0,71.1,29.94,NW,315,2.2,-999.0,97,-99.99,,,0.18,Acu-Link.com,2013-01-07 20:26:00,
2013-01-07 15:41:00,72.5,71.0,29.94,ENE,67,4.7,-999.0,95,-99.99,,,0.18,Acu-Link.com,2013-01-07 20:41:00,
2013-01-07 15:56:00,72.7,71.2,29.94,NNE,22,4.7,-999.0,95,-99.99,,,0.18,Acu-Link.com,2013-01-07 20:56:00,
2013-01-07 16:11:00,72.7,70.2,29.94,NNW,337,3.7,-999.0,92,-99.99,,,0.18,Acu-Link.com,2013-01-07 21:11:00,
2013-01-07 16:26:00,73.0,69.9,29.94,NE,45,6.3,-999.0,90,-99.99,,,0.18,Acu-Link.com,2013-01-07 21:26:00,
2013-01-07 16:41:00,72.9,69.8,29.94,NNE,22,3.2,-999.0,90,-99.99,,,0.18,Acu-Link.com,2013-01-07 21:41:00,
2013-01-07 16:57:00,72.7,69.9,29.94,NNE,22,4.7,-999.0,91,-99.99,,,0.18,Acu-Link.com,2013-01-07 21:57:00,
2013-01-07 17:14:00,72.3,69.2,29.94,NE,45,3.7,-999.0,90,-99.99,,,0.18,Acu-Link.com,2013-01-07 22:14:00,
2013-01-07 17:29:00,72.0,68.9,29.96,NE,45,2.7,-999.0,90,-99.99,,,0.18,Acu-Link.com,2013-01-07 22:29:00,
2013-01-07 17:44:00,71.6,68.8,29.95,NNE,22,2.2,-999.0,91,-99.99,,,0.18,Acu-Link.com,2013-01-07 22:44:00,
2013-01-07 17:59:00,71.2,69.1,29.96,NE,45,2.7,-999.0,93,-99.99,,,0.18,Acu-Link.com,2013-01-07 22:59:00,
2013-01-07 18:14:00,71.2,69.4,29.95,ENE,67,2.2,-999.0,94,-99.99,,,0.18,Acu-Link.com,2013-01-07 23:14:00,
2013-01-07 18:29:00,71.2,69.7,29.96,NNE,22,2.2,-999.0,95,-99.99,,,0.18,Acu-Link.com,2013-01-07 23:29:00,
2013-01-07 18:45:00,71.1,69.6,29.96,NNE,22,1.7,-999.0,95,-99.99,,,0.18,Acu-Link.com,2013-01-07 23:45:00,
2013-01-07 19:00:00,70.9,69.4,29.97,ENE,67,1.7,-999.0,95,-99.99,,,0.18,Acu-Link.com,2013-01-08 00:00:00,
2013-01-07 19:18:00,70.9,69.4,29.97,NNE,22,2.7,-999.0,95,-99.99,,,0.18,Acu-Link.com,2013-01-08 00:18:00,
2013-01-07 19:33:00,70.7,69.5,29.98,NNE,22,3.2,-999.0,96,-99.99,,,0.18,Acu-Link.com,2013-01-08 00:33:00,
2013-01-07 19:48:00,70.7,69.5,29.98,NE,45,1.7,-999.0,96,-99.99,,,0.18,Acu-Link.com,2013-01-08 00:48:00,
2013-01-07 20:03:00,70.7,69.5,29.98,NE,45,3.7,-999.0,96,-99.99,,,0.18,Acu-Link.com,2013-01-08 01:03:00,
2013-01-07 20:18:00,70.5,69.3,29.99,NNE,22,2.7,-999.0,96,-99.99,,,0.18,Acu-Link.com,2013-01-08 01:18:00,
2013-01-07 20:42:00,70.3,69.4,29.98,NNE,22,2.7,-999.0,97,-99.99,,,0.18,Acu-Link.com,2013-01-08 01:42:00,
2013-01-07 20:57:00,70.3,69.4,29.99,NE,45,2.2,-999.0,97,-99.99,,,0.18,Acu-Link.com,2013-01-08 01:57:00,
2013-01-07 21:13:00,69.8,69.2,29.99,NE,45,0.0,-999.0,98,-99.99,,,0.18,Acu-Link.com,2013-01-08 02:13:00,
2013-01-07 21:30:00,69.3,69.0,29.98,NE,45,1.7,-999.0,99,-99.99,,,0.18,Acu-Link.com,2013-01-08 02:30:00,
2013-01-07 21:47:00,68.7,68.4,29.99,NE,45,0.0,-999.0,99,-99.99,,,0.18,Acu-Link.com,2013-01-08 02:47:00,
2013-01-07 22:02:00,68.4,68.1,29.98,NE,45,0.0,-999.0,99,-99.99,,,0.18,Acu-Link.com,2013-01-08 03:02:00,
2013-01-07 22:17:00,68.4,68.1,29.99,NE,45,0.0,-999.0,99,-99.99,,,0.18,Acu-Link.com,2013-01-08 03:17:00,
2013-01-07 22:32:00,68.7,68.4,29.98,East,90,2.2,-999.0,99,-99.99,,,0.18,Acu-Link.com,2013-01-08 03:32:00,
2013-01-07 22:47:00,68.9,68.6,29.98,ESE,112,0.0,-999.0,99,-99.99,,,0.18,Acu-Link.com,2013-01-08 03:47:00,
2013-01-07 23:02:00,69.3,69.0,29.97,NE,45,2.2,-999.0,99,-99.99,,,0.18,Acu-Link.com,2013-01-08 04:02:00,
2013-01-07 23:17:00,70.0,69.7,29.97,East,90,2.2,-999.0,99,-99.99,,,0.18,Acu-Link.com,2013-01-08 04:17:00,
2013-01-07 23:33:00,70.3,69.7,29.97,NE,45,2.7,-999.0,98,-99.99,,,0.18,Acu-Link.com,2013-01-08 04:33:00,
2013-01-07 23:48:00,70.9,70.0,29.96,East,90,1.1,-999.0,97,-99.99,,,0.18,Acu-Link.com,2013-01-08 04:48:00,